STARLINK-1905, 46746

Orbit data source: Space-Track

STARLINK-1905, 46746 is a payload satellite owned by SpaceX/Seattle (US) in LEO that was launched on Sat, 24 Oct 2020 UTC via an FALCON 9 launch vehicle from the Air Force Eastern Test Range (AFETR). Payload-class satellites include a variety of spacecraft equipped with specific instruments for various scientific and technological missions. These include communications satellites like Starlink; space stations such as the ISS; scientific satellites like the Hubble; Earth observation satellites from companies like Planet Labs, Umbra, and HawkEye 360; GPS; miniature CubeSats for education and research; and military/defense satellites.

Loading next visibility...
Identifier
46746, 2020-074H
Orbit
LEO
Country
Flag of USUS
Related business
Manufacturer
SpaceX/Seattle
Mission
Partially operational Commercial Communications
Bus & Motor
STARLINK, Unknown motor
Mass
260 kg wet, ~248 kg dry
Launch date (UTC)
2020-10-24 (6 years ago)
Launch vehicle
FALCON 9
Launch site
Air Force Eastern Test Range (AFETR)
Object type
Payload
Rocket body
Debris
Shape & HBR
Box + 1 Pan, 10.1 m
Radar Cross Section
13.562 m², Large (>1 m²)

Expand to show TLE details & history
Last TLE update: 2 days ago

TLE from 2 days ago
0 STARLINK-1905
1 46746U 20074H   26171.50003471  .00373993  68670-4  81282-3 0  9996
2 46746  53.0307 130.7259 0002513 188.2664  83.0904 15.97795470  6048
Epoch: 2026-06-20T12:00Z
TLE epoch observation values (Epoch: 2026-06-20T12:00:02.998Z)
Latitude
-53.1646°
Longitude
-45.70319°
Altitude
298.774 km
Speed
7.728 km/s
True Right ascension
02h 52m 05s
True Declination
-52° 59' 17"
Sunlit
Object was in daylight at epoch
Visualization orbit readout
Latitude
Unknown
Longitude
Unknown
Altitude
Unknown
Speed
Unknown
Apparent Right ascension
Unknown
Apparent Declination
Unknown
Sunlit
N/A
Visualization observer readout
Local Sidereal Time
00:49:55
Azimuth
Unknown
Elevation
Unknown
Doppler factor
Unknown
Orbital elements
Apogee altitude
282.495 km
Perigee altitude
279.148 km
Semi-major axis
6,658.959 km
Eccentricity
0.00025
Inclination
53.0307°
RAAN
130.7259°
Arg. of periapsis
188.2664°
True anomaly
83.11899°
Mean anomaly
83.0904°
Eccentric anomaly
83.10469°
Mean motion
3.99424 °/min
Orbital period
90.13 mins
BSTAR
0.00081282
Loading maneuver chart data...
Computing Atmospheric mass density...

Documentation

Showing up to 5 results
|